Regional Weather Roundup
Issued by NWS

Home | Current Version | Previous Version | Text Only | Print | Product List | Glossary Off
Versions: 1 2 3 4 5 6 7 8 9 10 11 12 13 14 15 16 17 18 19 20 21 22 23 24 25 26 27 28 29 30 31 32 33 34 35 36 37 38 39 40 41 42 43 44 45 46 47 48 49 50

000
ASUS43 KIND 100109
RWRIN

WEATHER ROUNDUP FOR INDIANA
NATIONAL WEATHER SERVICE INDIANAPOLIS IN
800 PM EST TUE FEB 09 2016

NOTE: "FAIR" INDICATES FEW OR NO CLOUDS BELOW 12,000 FEET WITH NO
SIGNIFICANT WEATHER AND/OR OBSTRUCTIONS TO VISIBILITY.

* - STATION DOES NOT REPORT WEATHER SUCH AS PRECIPITATION OR FOG.

+ - STATION NOT QUALITY CONTROLLED BY THE NATIONAL WEATHER SERVICE.
    USE DATA WITH CAUTION...ESPECIALLY DEWPOINT AND RELATIVE
    HUMIDITY OBSERVATIONS.

INZ001>003-010>013-019-020-100200-
NORTHWEST INDIANA

CITY           SKY/WX    TMP DP  RH WIND       PRES   REMARKS
GARY /AIRPORT/ CLOUDY    19   7  58 W12G23    29.94R WCI   7
KNOX *+        CLOUDY    18  12  79 W15       29.90R WCI   3
LA PORTE +     LGT SNOW  19  16  86 W7G16     29.89S WCI  10
MICHIGAN CITY+ FLURRIES  19  14  79 W9        29.90S WCI   9
MONTICELLO +   CLOUDY    17   8  69 W12G18    29.92S WCI   4
RENSSELAER +   FLURRIES  19  10  68 W10       29.94S WCI   8
VALPARAISO     LGT SNOW  16  11  80 MISG      29.91R

$$

LMZ046-743>745-100200-
SOUTHERN LAKE MICHIGAN

STATION/POSITION TIME  TEMP    WIND        PRES    WAVE
                       AIR SEA DIR/SP/G            HT
                 (UTC) (F)     (DEG/KT/KT) (MB)    (FT)
BURNS HARBOR     0021   20     310/ 15/ 21 1013.5R
MICHIGAN CITY    0000   19     270/ 23/ 26   N/A

$$

INZ004-005-014>016-021>024-100200-
NORTH CENTRAL INDIANA

CITY           SKY/WX    TMP DP  RH WIND       PRES   REMARKS
ELKHART        LGT SNOW  21  18  86 W14       29.84S WCI   8
GOSHEN         FLURRIES  20  15  81 W16       29.84R WCI   6
LOGANSPORT +   FLURRIES  18   9  68 W13       29.92R WCI   4
PERU/GRISSOM   FLURRIES  18  12  77 W16       29.88R WCI   3
ROCHESTER +    CLOUDY    21  10  63 W13       29.89R WCI   9
SOUTH BEND     LGT SNOW  19  15  84 W14       29.86R FOG     WCI   6
WARSAW +       FLURRIES  19  14  79 W15       29.85S WCI   5

$$

INZ006>009-017-018-025>027-100200-
NORTHEAST INDIANA

CITY           SKY/WX    TMP DP  RH WIND       PRES   REMARKS
ANGOLA *+      CLOUDY    21  18  86 NW12      29.77R WCI   9
AUBURN +       CLOUDY    23  18  80 W14G23    29.82R WCI  11
FORT WAYNE     CLOUDY    21  13  71 W17       29.85R WCI   7
HUNTINGTON +   CLOUDY    19   9  66 W10       29.86R WCI   7

$$

INZ028-029-035-036-043>045-051>053-100200-
WEST CENTRAL INDIANA

CITY           SKY/WX    TMP DP  RH WIND       PRES   REMARKS
GREENCASTLE +  CLOUDY    18   5  57 W8        29.96R WCI   7
LAFAYETTE      CLOUDY    15   9  76 W9        29.95R WCI   3
TERRE HAUTE    FLURRIES  18  11  74 NW10G20   30.00R WCI   6

$$

INZ030>032-037>040-046>048-054>057-064-065-100200-
CENTRAL INDIANA

CITY           SKY/WX    TMP DP  RH WIND       PRES   REMARKS
FISHERS *+     CLOUDY    16  14  93 W9        29.93  WCI   4
FRANKFORT +    PTCLDY    15   4  61 W12       29.94R WCI   1
GREENWOOD *+   MOCLDY    18  14  86 W9G17     29.94R WCI   6
INDIANAPOLIS   FLURRIES  17  10  74 W13       29.93R WCI   4
-EAGLE CREEK   MOCLDY    16  11  80 W14       29.93R WCI   2
KOKOMO *+      CLOUDY    18  10  73 W18       29.90R WCI   2
MARION +       CLOUDY    18   8  65 W15       29.89S WCI   3
MT COMFORT *+  MOCLDY    16  10  79 W18       29.92R WCI  -1
SHELBYVILLE    CLOUDY    19  11  70 W14       29.92R WCI   6
ZIONSVILLE +   CLOUDY    16  11  81 W9G17     29.92R WCI   4

$$

INZ033-034-041-042-049-050-058-059-100200-
EAST CENTRAL INDIANA

CITY           SKY/WX    TMP DP  RH WIND       PRES   REMARKS
MUNCIE         FLURRIES  19  13  77 W12       29.88R WCI   7

$$

INZ060-061-067>069-081>083-085>088-100200-
SOUTHWEST INDIANA

CITY           SKY/WX    TMP DP  RH WIND       PRES   REMARKS
EVANSVILLE     LGT SNOW  21  14  74 NW9G17    30.07R WCI  11
HUNTINGBURG *+ CLOUDY    19  12  73 W14       30.03S WCI   6
WASHINGTON +   LGT SNOW  19  15  84 NW9       30.03R VSB 1   WCI   8

$$

INZ062-063-066-070>080-084-089>092-100200-
SOUTH CENTRAL AND SOUTHEAST INDIANA

CITY           SKY/WX    TMP DP  RH WIND       PRES   REMARKS
BEDFORD +      LGT SNOW  19  16  86 W6        29.98  WCI  11
BLOOMINGTON    CLOUDY    18  10  71 NW10      29.96R WCI   6
MADISON *+     MOCLDY    21  14  73 W12G21    29.96R WCI   9
NORTH VERNON + LGT SNOW  19  18  93 CALM      29.94
SEYMOUR +      LGT SNOW  21  16  79 W15       29.97R WCI   8

$$





USA.gov is the U.S. government's official web portal to all federal, state and local government web resources and services.